| time (UTC) | temp C | wind direction | speed KPH | gust KPH | rain 1hr cm | rain 24hr cm | rain mn cm | humidity % | barometer mb |
| 20260906135000 | 26 | 253 | 1.6 | 3.2 | 0.00 | 0.00 | 0.00 | 78 | 1013.5 |
| 20260906134505 | 26 | 222 | 0.0 | 4.8 | 0.00 | 0.00 | 0.00 | 79 | 1013.4 |
| 20260906134006 | 26 | 260 | 1.6 | 4.8 | 0.00 | 0.00 | 0.00 | 79 | 1013.4 |
| 20260906133500 | 26 | 251 | 0.0 | 4.8 | 0.00 | 0.00 | 0.00 | 81 | 1013.4 |
| 20260906133008 | 25 | 242 | 3.2 | 4.8 | 0.00 | 0.00 | 0.00 | 82 | 1013.4 |
| 20260906132504 | 25 | 200 | 3.2 | 4.8 | 0.00 | 0.00 | 0.00 | 83 | 1013.4 |
| 20260906132005 | 25 | 228 | 3.2 | 4.8 | 0.00 | 0.00 | 0.00 | 85 | 1013.4 |
| 20260906131514 | 24 | 232 | 3.2 | 4.8 | 0.00 | 0.00 | 0.00 | 86 | 1013.3 |
| 20260906131008 | 23 | 239 | 1.6 | 3.2 | 0.00 | 0.00 | 0.00 | 87 | 1013.2 |
| 20260906130508 | 23 | 200 | 0.0 | 0.0 | 0.00 | 0.00 | 0.00 | 87 | 1013.4 |
| 20260906130022 | 23 | 182 | 0.0 | 0.0 | 0.00 | 0.00 | 0.00 | 87 | 1013.5 |
| 20260906125509 | 23 | 182 | 0.0 | 0.0 | 0.00 | 0.00 | 0.00 | 87 | 1013.6 |
| 20260906125014 | 23 | 182 | 0.0 | 0.0 | 0.00 | 0.00 | 0.00 | 87 | 1013.5 |
| 20260906124530 | 22 | 182 | 0.0 | 0.0 | 0.00 | 0.00 | 0.00 | 87 | 1013.6 |
| 20260906124003 | 22 | 182 | 0.0 | 0.0 | 0.00 | 0.00 | 0.00 | 87 | 1013.7 |
| 20260906123503 | 22 | 219 | 0.0 | 0.0 | 0.00 | 0.00 | 0.00 | 86 | 1013.6 |
| 20260906123010 | 22 | 217 | 0.0 | 0.0 | 0.00 | 0.00 | 0.00 | 87 | 1013.5 |
| 20260906122504 | 22 | 217 | 0.0 | 0.0 | 0.00 | 0.00 | 0.00 | 86 | 1013.4 |
| 20260906122006 | 22 | 217 | 0.0 | 0.0 | 0.00 | 0.00 | 0.00 | 87 | 1013.4 |
| 20260906121513 | 22 | 217 | 0.0 | 0.0 | 0.00 | 0.00 | 0.00 | 86 | 1013.4 |
| 20260906121005 | 22 | 217 | 0.0 | 0.0 | 0.00 | 0.00 | 0.00 | 86 | 1013.4 |
| 20260906120508 | 22 | 217 | 0.0 | 0.0 | 0.00 | 0.00 | 0.00 | 86 | 1013.4 |
| 20260906120018 | 22 | 217 | 0.0 | 0.0 | 0.00 | 0.00 | 0.00 | 86 | 1013.4 |
| 20260906115511 | 22 | 217 | 0.0 | 0.0 | 0.00 | 0.00 | 0.00 | 86 | 1013.3 |
| 20260906115011 | 22 | 217 | 0.0 | 0.0 | 0.00 | 0.00 | 0.00 | 86 | 1013.2 |
| 20260906114542 | 22 | 217 | 0.0 | 0.0 | 0.00 | 0.00 | 0.00 | 86 | 1013.2 |
| 20260906114010 | 22 | 9 | 0.0 | 0.0 | 0.00 | 0.00 | 0.00 | 86 | 1013.4 |
| 20260906113515 | 23 | 9 | 0.0 | 0.0 | 0.00 | 0.00 | 0.00 | 86 | 1013.4 |
| 20260906113030 | 23 | 9 | 0.0 | 0.0 | 0.00 | 0.00 | 0.00 | 86 | 1013.5 |
| 20260906112503 | 23 | 9 | 0.0 | 0.0 | 0.00 | 0.00 | 0.00 | 86 | 1013.4 |
| 20260906112003 | 23 | 15 | 0.0 | 0.0 | 0.00 | 0.00 | 0.00 | 86 | 1013.4 |
| 20260906111511 | 23 | 15 | 0.0 | 0.0 | 0.00 | 0.00 | 0.00 | 86 | 1013.4 |
| 20260906111004 | 23 | 15 | 0.0 | 0.0 | 0.00 | 0.00 | 0.00 | 87 | 1013.3 |
| 20260906110508 | 23 | 54 | 0.0 | 0.0 | 0.00 | 0.00 | 0.00 | 87 | 1013.4 |
| 20260906110033 | 23 | 82 | 0.0 | 0.0 | 0.00 | 0.00 | 0.00 | 87 | 1013.4 |
| 20260906105509 | 22 | 163 | 0.0 | 0.0 | 0.00 | 0.00 | 0.00 | 87 | 1013.3 |
| 20260906105011 | 22 | 163 | 0.0 | 0.0 | 0.00 | 0.00 | 0.00 | 87 | 1013.2 |
| 20260906104532 | 22 | 163 | 0.0 | 0.0 | 0.00 | 0.00 | 0.00 | 86 | 1013.0 |
| 20260906104012 | 22 | 163 | 0.0 | 0.0 | 0.00 | 0.00 | 0.00 | 86 | 1013.1 |
| 20260906103514 | 22 | 163 | 0.0 | 0.0 | 0.00 | 0.00 | 0.00 | 86 | 1013.0 |
| 20260906103031 | 22 | 163 | 0.0 | 0.0 | 0.00 | 0.00 | 0.00 | 86 | 1013.0 |
| 20260906102516 | 22 | 163 | 0.0 | 0.0 | 0.00 | 0.00 | 0.00 | 86 | 1013.1 |
| 20260906102017 | 22 | 163 | 0.0 | 0.0 | 0.00 | 0.00 | 0.00 | 86 | 1013.0 |
| 20260906101510 | 22 | 163 | 0.0 | 0.0 | 0.00 | 0.00 | 0.00 | 86 | 1013.0 |
| 20260906101004 | 22 | 163 | 0.0 | 0.0 | 0.00 | 0.00 | 0.00 | 86 | 1012.9 |
| 20260906100508 | 22 | 163 | 0.0 | 0.0 | 0.00 | 0.00 | 0.00 | 86 | 1012.9 |
| 20260906100014 | 22 | 163 | 0.0 | 0.0 | 0.00 | 0.00 | 0.00 | 86 | 1012.9 |
| 20260906095511 | 22 | 163 | 0.0 | 0.0 | 0.00 | 0.00 | 0.00 | 86 | 1013.0 |
| 20260906095008 | 22 | 163 | 0.0 | 0.0 | 0.00 | 0.00 | 0.00 | 86 | 1012.9 |
| 20260906094550 | 23 | 59 | 0.0 | 0.0 | 0.00 | 0.00 | 0.00 | 86 | 1012.8 |
| 20260906094010 | 23 | 59 | 0.0 | 0.0 | 0.00 | 0.00 | 0.00 | 86 | 1012.8 |
| 20260906093512 | 23 | 59 | 0.0 | 0.0 | 0.00 | 0.00 | 0.00 | 86 | 1012.8 |
| 20260906093042 | 23 | 59 | 0.0 | 0.0 | 0.00 | 0.00 | 0.00 | 86 | 1012.8 |
| 20260906092517 | 23 | 59 | 0.0 | 0.0 | 0.00 | 0.00 | 0.00 | 86 | 1012.8 |
| 20260906092016 | 23 | 59 | 0.0 | 0.0 | 0.00 | 0.00 | 0.00 | 86 | 1012.9 |
| 20260906091532 | 23 | 59 | 0.0 | 0.0 | 0.00 | 0.00 | 0.00 | 86 | 1012.9 |
| 20260906091017 | 23 | 59 | 0.0 | 0.0 | 0.00 | 0.00 | 0.00 | 86 | 1012.9 |
| 20260906090518 | 23 | 59 | 0.0 | 0.0 | 0.00 | 0.00 | 0.00 | 86 | 1013.0 |
| 20260906090023 | 23 | 28 | 0.0 | 0.0 | 0.00 | 0.00 | 0.00 | 86 | 1013.1 |
| 20260906085507 | 23 | 28 | 0.0 | 0.0 | 0.00 | 0.00 | 0.00 | 86 | 1013.0 |
| 20260906085007 | 23 | 28 | 0.0 | 0.0 | 0.00 | 0.00 | 0.00 | 86 | 1013.0 |
| 20260906084521 | 23 | 28 | 0.0 | 3.2 | 0.00 | 0.00 | 0.00 | 86 | 1012.9 |
| 20260906084011 | 23 | 28 | 0.0 | 4.8 | 0.00 | 0.00 | 0.00 | 86 | 1012.8 |
| 20260906083510 | 23 | 37 | 3.2 | 4.8 | 0.00 | 0.00 | 0.00 | 86 | 1012.7 |
| 20260906083041 | 23 | 310 | 0.0 | 0.0 | 0.00 | 0.00 | 0.00 | 86 | 1012.7 |
| 20260906082513 | 23 | 310 | 0.0 | 0.0 | 0.00 | 0.00 | 0.00 | 86 | 1012.7 |
| 20260906082017 | 23 | 214 | 0.0 | 0.0 | 0.00 | 0.00 | 0.00 | 86 | 1012.7 |
| 20260906081537 | 23 | 214 | 0.0 | 0.0 | 0.00 | 0.00 | 0.00 | 86 | 1012.5 |
| 20260906081015 | 23 | 223 | 0.0 | 0.0 | 0.00 | 0.00 | 0.00 | 86 | 1012.6 |
| 20260906080515 | 23 | 299 | 0.0 | 0.0 | 0.00 | 0.00 | 0.00 | 86 | 1012.7 |
| 20260906080039 | 23 | 299 | 0.0 | 0.0 | 0.00 | 0.00 | 0.00 | 86 | 1012.7 |
| 20260906075517 | 23 | 299 | 0.0 | 0.0 | 0.00 | 0.00 | 0.00 | 86 | 1012.8 |
| 20260906075007 | 23 | 299 | 0.0 | 0.0 | 0.00 | 0.00 | 0.00 | 86 | 1012.8 |
| 20260906074521 | 23 | 299 | 0.0 | 0.0 | 0.00 | 0.00 | 0.00 | 86 | 1012.8 |
| 20260906074007 | 23 | 299 | 0.0 | 0.0 | 0.00 | 0.00 | 0.00 | 86 | 1012.9 |
| 20260906073500 | 23 | 185 | 0.0 | 0.0 | 0.00 | 0.00 | 0.00 | 86 | 1012.9 |
| 20260906073004 | 23 | 185 | 0.0 | 0.0 | 0.00 | 0.00 | 0.00 | 86 | 1012.8 |
| 20260906072502 | 23 | 185 | 0.0 | 0.0 | 0.00 | 0.00 | 0.00 | 85 | 1012.7 |
| 20260906072002 | 23 | 185 | 0.0 | 0.0 | 0.00 | 0.00 | 0.00 | 85 | 1012.6 |
| 20260906071504 | 23 | 185 | 0.0 | 0.0 | 0.00 | 0.00 | 0.00 | 85 | 1012.4 |
| 20260906071004 | 23 | 185 | 0.0 | 1.6 | 0.00 | 0.00 | 0.00 | 85 | 1012.3 |
| 20260906070502 | 23 | 141 | 0.0 | 3.2 | 0.00 | 0.00 | 0.00 | 85 | 1012.1 |
| 20260906070010 | 23 | 141 | 1.6 | 3.2 | 0.00 | 0.00 | 0.00 | 85 | 1012.1 |
| 20260906065505 | 23 | 40 | 0.0 | 6.4 | 0.00 | 0.00 | 0.00 | 86 | 1012.0 |
| 20260906065004 | 23 | 64 | 3.2 | 6.4 | 0.00 | 0.00 | 0.00 | 86 | 1012.1 |
| 20260906064516 | 23 | 23 | 0.0 | 4.8 | 0.00 | 0.00 | 0.00 | 86 | 1012.2 |
| 20260906064008 | 23 | 211 | 1.6 | 6.4 | 0.00 | 0.00 | 0.00 | 86 | 1012.2 |
| 20260906063507 | 23 | 225 | 4.8 | 6.4 | 0.00 | 0.00 | 0.00 | 86 | 1012.1 |
| 20260906063024 | 23 | 184 | 1.6 | 4.8 | 0.00 | 0.00 | 0.00 | 86 | 1012.2 |
| 20260906062509 | 23 | 209 | 4.8 | 4.8 | 0.00 | 0.00 | 0.00 | 85 | 1012.4 |
| 20260906062002 | 23 | 230 | 1.6 | 6.4 | 0.00 | 0.00 | 0.00 | 86 | 1012.7 |
| 20260906061504 | 23 | 27 | 0.0 | 6.4 | 0.00 | 0.00 | 0.00 | 86 | 1013.0 |
| 20260906061003 | 23 | 42 | 3.2 | 6.4 | 0.00 | 0.00 | 0.00 | 86 | 1013.1 |
| 20260906060503 | 23 | 49 | 3.2 | 6.4 | 0.00 | 0.00 | 0.00 | 86 | 1013.2 |
| 20260906060008 | 23 | 40 | 1.6 | 4.8 | 0.00 | 0.00 | 0.00 | 85 | 1013.4 |
| 20260906055504 | 23 | 59 | 1.6 | 4.8 | 0.00 | 0.00 | 0.00 | 85 | 1013.2 |
| 20260906055005 | 23 | 47 | 0.0 | 0.0 | 0.00 | 0.00 | 0.00 | 85 | 1013.1 |
| 20260906054513 | 23 | 155 | 0.0 | 0.0 | 0.00 | 0.00 | 0.00 | 85 | 1013.2 |
| 20260906054010 | 23 | 155 | 0.0 | 0.0 | 0.00 | 0.00 | 0.00 | 85 | 1013.0 |
| 20260906053510 | 23 | 155 | 0.0 | 0.0 | 0.00 | 0.00 | 0.00 | 85 | 1013.0 |
| 20260906053023 | 23 | 155 | 0.0 | 0.0 | 0.00 | 0.00 | 0.00 | 85 | 1013.1 |
| 20260906052512 | 23 | 155 | 0.0 | 0.0 | 0.00 | 0.00 | 0.00 | 85 | 1013.0 |
| 20260906052011 | 23 | 155 | 0.0 | 0.0 | 0.00 | 0.00 | 0.00 | 85 | 1013.2 |
| 20260906051527 | 23 | 155 | 0.0 | 0.0 | 0.00 | 0.00 | 0.00 | 85 | 1013.2 |
| 20260906051004 | 23 | 155 | 0.0 | 0.0 | 0.00 | 0.00 | 0.00 | 85 | 1013.2 |
| 20260906050518 | 23 | 155 | 0.0 | 0.0 | 0.00 | 0.00 | 0.00 | 85 | 1013.1 |
| 20260906050007 | 23 | 155 | 0.0 | 0.0 | 0.00 | 0.00 | 0.00 | 85 | 1013.2 |
| 20260906045508 | 23 | 155 | 0.0 | 0.0 | 0.00 | 0.00 | 0.00 | 85 | 1013.2 |
| 20260906045003 | 23 | 155 | 0.0 | 0.0 | 0.00 | 0.00 | 0.00 | 84 | 1013.2 |
| 20260906044514 | 23 | 155 | 0.0 | 0.0 | 0.00 | 0.00 | 0.00 | 85 | 1013.3 |
| 20260906044007 | 23 | 155 | 0.0 | 0.0 | 0.00 | 0.00 | 0.00 | 84 | 1013.4 |
| 20260906043505 | 23 | 155 | 0.0 | 0.0 | 0.00 | 0.00 | 0.00 | 85 | 1013.4 |
| 20260906043020 | 23 | 155 | 0.0 | 0.0 | 0.00 | 0.00 | 0.00 | 84 | 1013.4 |
| 20260906042511 | 23 | 155 | 0.0 | 0.0 | 0.00 | 0.00 | 0.00 | 84 | 1013.3 |
| 20260906042011 | 23 | 155 | 0.0 | 0.0 | 0.00 | 0.00 | 0.00 | 85 | 1013.3 |
| 20260906041527 | 23 | 155 | 0.0 | 3.2 | 0.00 | 0.00 | 0.00 | 85 | 1013.3 |
| 20260906041014 | 23 | 214 | 0.0 | 3.2 | 0.00 | 0.00 | 0.00 | 84 | 1013.3 |
| 20260906040515 | 23 | 214 | 0.0 | 4.8 | 0.00 | 0.00 | 0.00 | 84 | 1013.3 |
| 20260906040016 | 23 | 214 | 1.6 | 4.8 | 0.00 | 0.00 | 0.00 | 85 | 1013.4 |
| 20260906035505 | 23 | 157 | 1.6 | 3.2 | 0.00 | 0.00 | 0.00 | 84 | 1013.5 |
| 20260906035004 | 23 | 232 | 0.0 | 0.0 | 0.00 | 0.00 | 0.00 | 84 | 1013.3 |
| 20260906034509 | 23 | 232 | 0.0 | 0.0 | 0.00 | 0.00 | 0.00 | 84 | 1013.3 |
| 20260906034004 | 24 | 232 | 0.0 | 0.0 | 0.00 | 0.00 | 0.00 | 84 | 1013.4 |
| 20260906033507 | 24 | 232 | 0.0 | 0.0 | 0.00 | 0.00 | 0.00 | 84 | 1013.4 |
| 20260906033016 | 24 | 232 | 0.0 | 0.0 | 0.00 | 0.00 | 0.00 | 84 | 1013.4 |
| 20260906032509 | 24 | 232 | 0.0 | 0.0 | 0.00 | 0.00 | 0.00 | 84 | 1013.5 |
| 20260906032011 | 24 | 232 | 0.0 | 0.0 | 0.00 | 0.00 | 0.00 | 84 | 1013.5 |
| 20260906031519 | 24 | 232 | 0.0 | 0.0 | 0.00 | 0.00 | 0.00 | 83 | 1013.5 |
| 20260906031021 | 24 | 232 | 0.0 | 0.0 | 0.00 | 0.00 | 0.00 | 83 | 1013.5 |
| 20260906030513 | 24 | 232 | 0.0 | 0.0 | 0.00 | 0.00 | 0.00 | 83 | 1013.5 |
| 20260906030027 | 24 | 232 | 0.0 | 0.0 | 0.00 | 0.00 | 0.00 | 83 | 1013.5 |
| 20260906025516 | 24 | 232 | 0.0 | 0.0 | 0.00 | 0.00 | 0.00 | 83 | 1013.6 |
| 20260906025017 | 25 | 232 | 0.0 | 0.0 | 0.00 | 0.00 | 0.00 | 83 | 1013.7 |
| 20260906024526 | 24 | 232 | 0.0 | 0.0 | 0.00 | 0.00 | 0.00 | 83 | 1013.6 |
| 20260906024006 | 25 | 232 | 0.0 | 0.0 | 0.00 | 0.00 | 0.00 | 82 | 1013.6 |
| 20260906023505 | 25 | 232 | 0.0 | 0.0 | 0.00 | 0.00 | 0.00 | 82 | 1013.5 |
| 20260906023019 | 25 | 232 | 0.0 | 0.0 | 0.00 | 0.00 | 0.00 | 82 | 1013.4 |
| 20260906022505 | 25 | 232 | 0.0 | 0.0 | 0.00 | 0.00 | 0.00 | 82 | 1013.2 |
| 20260906022008 | 25 | 232 | 0.0 | 0.0 | 0.00 | 0.00 | 0.00 | 82 | 1013.1 |
| 20260906021521 | 25 | 232 | 0.0 | 0.0 | 0.00 | 0.00 | 0.00 | 82 | 1013.0 |
| 20260906021011 | 25 | 232 | 0.0 | 0.0 | 0.00 | 0.00 | 0.00 | 81 | 1012.9 |
| 20260906020513 | 25 | 232 | 0.0 | 0.0 | 0.00 | 0.00 | 0.00 | 81 | 1012.8 |
| 20260906020030 | 25 | 232 | 0.0 | 0.0 | 0.00 | 0.00 | 0.00 | 81 | 1012.8 |
| 20260906015511 | 25 | 232 | 0.0 | 0.0 | 0.00 | 0.00 | 0.00 | 81 | 1012.7 |
| 20260906015016 | 25 | 232 | 0.0 | 0.0 | 0.00 | 0.00 | 0.00 | 80 | 1012.6 |
| 20260906014549 | 25 | 230 | 0.0 | 0.0 | 0.00 | 0.00 | 0.00 | 80 | 1012.7 |
| 20260906014017 | 25 | 230 | 0.0 | 0.0 | 0.00 | 0.00 | 0.00 | 80 | 1012.6 |
| 20260906013506 | 25 | 212 | 0.0 | 0.0 | 0.00 | 0.00 | 0.00 | 80 | 1012.5 |
| 20260906013034 | 25 | 212 | 0.0 | 0.0 | 0.00 | 0.00 | 0.00 | 80 | 1012.5 |
| 20260906012505 | 25 | 212 | 0.0 | 0.0 | 0.00 | 0.00 | 0.00 | 79 | 1012.4 |
| 20260906012006 | 26 | 212 | 0.0 | 0.0 | 0.00 | 0.00 | 0.00 | 79 | 1012.4 |
| 20260906011520 | 26 | 212 | 0.0 | 0.0 | 0.00 | 0.00 | 0.00 | 79 | 1012.3 |
| 20260906011011 | 26 | 212 | 0.0 | 0.0 | 0.00 | 0.00 | 0.00 | 79 | 1012.3 |
| 20260906010511 | 26 | 212 | 0.0 | 0.0 | 0.00 | 0.00 | 0.00 | 78 | 1012.2 |
| 20260906010028 | 26 | 212 | 0.0 | 0.0 | 0.00 | 0.00 | 0.00 | 78 | 1012.1 |
| 20260906005513 | 26 | 214 | 0.0 | 0.0 | 0.00 | 0.00 | 0.00 | 77 | 1012.0 |
| 20260906005015 | 26 | 305 | 0.0 | 0.0 | 0.00 | 0.00 | 0.00 | 76 | 1011.9 |
| 20260906004531 | 27 | 305 | 0.0 | 0.0 | 0.00 | 0.00 | 0.00 | 76 | 1012.0 |
| 20260906004015 | 27 | 305 | 0.0 | 0.0 | 0.00 | 0.00 | 0.00 | 75 | 1012.0 |
| 20260906003516 | 27 | 305 | 0.0 | 0.0 | 0.00 | 0.00 | 0.00 | 74 | 1011.9 |
| 20260906003034 | 27 | 305 | 0.0 | 0.0 | 0.00 | 0.00 | 0.00 | 74 | 1012.0 |
| 20260906002515 | 27 | 305 | 0.0 | 0.0 | 0.00 | 0.00 | 0.00 | 74 | 1012.0 |
| 20260906002004 | 27 | 305 | 0.0 | 0.0 | 0.00 | 0.00 | 0.00 | 73 | 1012.0 |
| 20260906001512 | 27 | 305 | 0.0 | 0.0 | 0.00 | 0.00 | 0.00 | 73 | 1012.1 |
| 20260906001004 | 27 | 228 | 0.0 | 1.6 | 0.00 | 0.00 | 0.00 | 73 | 1012.0 |
| 20260906000503 | 27 | 227 | 0.0 | 3.2 | 0.00 | 0.00 | 0.00 | 72 | 1012.1 |
| 20260906000012 | 27 | 215 | 0.0 | 4.8 | 0.00 | 0.00 | 0.00 | 72 | 1012.2 |
| 20260905235503 | 27 | 211 | 1.6 | 4.8 | 0.00 | 0.00 | 0.00 | 72 | 1012.2 |
| 20260905235003 | 28 | 240 | 0.0 | 3.2 | 0.00 | 0.00 | 0.00 | 71 | 1012.3 |
| 20260905234514 | 28 | 259 | 1.6 | 6.4 | 0.00 | 0.00 | 0.00 | 71 | 1012.2 |
| 20260905234004 | 28 | 232 | 3.2 | 6.4 | 0.00 | 0.00 | 0.00 | 71 | 1012.2 |
| 20260905233504 | 28 | 219 | 3.2 | 11.3 | 0.00 | 0.00 | 0.00 | 70 | 1012.4 |
| 20260905233012 | 28 | 216 | 4.8 | 11.3 | 0.00 | 0.00 | 0.00 | 70 | 1012.3 |
| 20260905232504 | 28 | 233 | 3.2 | 9.7 | 0.00 | 0.00 | 0.00 | 70 | 1012.4 |
| 20260905232004 | 28 | 199 | 6.4 | 9.7 | 0.00 | 0.00 | 0.00 | 69 | 1012.4 |
| 20260905231510 | 28 | 252 | 1.6 | 11.3 | 0.00 | 0.00 | 0.00 | 70 | 1012.4 |
| 20260905231003 | 28 | 226 | 4.8 | 12.9 | 0.00 | 0.00 | 0.00 | 69 | 1012.4 |
| 20260905230504 | 28 | 221 | 8.0 | 12.9 | 0.00 | 0.00 | 0.00 | 69 | 1012.4 |
| 20260905230012 | 28 | 238 | 6.4 | 11.3 | 0.00 | 0.00 | 0.00 | 69 | 1012.3 |
| 20260905225505 | 28 | 215 | 4.8 | 12.9 | 0.00 | 0.00 | 0.00 | 69 | 1012.3 |
| 20260905225007 | 28 | 242 | 8.0 | 12.9 | 0.00 | 0.00 | 0.00 | 68 | 1012.4 |
| 20260905224512 | 28 | 228 | 8.0 | 12.9 | 0.00 | 0.00 | 0.00 | 68 | 1012.3 |
| 20260905224003 | 28 | 238 | 6.4 | 11.3 | 0.00 | 0.00 | 0.00 | 69 | 1012.3 |
| 20260905223503 | 28 | 213 | 8.0 | 16.1 | 0.00 | 0.00 | 0.00 | 68 | 1012.4 |
| 20260905223009 | 29 | 225 | 9.7 | 16.1 | 0.00 | 0.00 | 0.00 | 67 | 1012.3 |
| 20260905222504 | 29 | 214 | 4.8 | 12.9 | 0.00 | 0.00 | 0.00 | 68 | 1012.3 |
| 20260905222004 | 29 | 245 | 8.0 | 16.1 | 0.00 | 0.00 | 0.00 | 68 | 1012.4 |
| 20260905221513 | 29 | 224 | 8.0 | 16.1 | 0.00 | 0.00 | 0.00 | 67 | 1012.4 |
| 20260905221006 | 30 | 240 | 6.4 | 17.7 | 0.00 | 0.00 | 0.00 | 66 | 1012.3 |
| 20260905220505 | 30 | 263 | 9.7 | 17.7 | 0.00 | 0.00 | 0.00 | 65 | 1012.4 |
| 20260905220015 | 31 | 223 | 8.0 | 14.5 | 0.00 | 0.00 | 0.00 | 64 | 1012.3 |
| 20260905215507 | 30 | 209 | 6.4 | 12.9 | 0.00 | 0.00 | 0.00 | 64 | 1012.2 |
| 20260905215004 | 30 | 216 | 6.4 | 12.9 | 0.00 | 0.00 | 0.00 | 63 | 1012.2 |
| 20260905214515 | 30 | 226 | 4.8 | 11.3 | 0.00 | 0.00 | 0.00 | 64 | 1012.2 |
| 20260905214009 | 30 | 247 | 4.8 | 14.5 | 0.00 | 0.00 | 0.00 | 63 | 1012.2 |
| 20260905213509 | 30 | 227 | 8.0 | 16.1 | 0.00 | 0.00 | 0.00 | 63 | 1012.3 |
| 20260905213016 | 30 | 208 | 9.7 | 16.1 | 0.00 | 0.00 | 0.00 | 62 | 1012.4 |
| 20260905212508 | 30 | 267 | 6.4 | 12.9 | 0.00 | 0.00 | 0.00 | 64 | 1012.4 |
| 20260905212008 | 30 | 198 | 6.4 | 11.3 | 0.00 | 0.00 | 0.00 | 66 | 1012.5 |
| 20260905211511 | 30 | 209 | 6.4 | 14.5 | 0.00 | 0.00 | 0.00 | 66 | 1012.6 |
| 20260905211010 | 30 | 233 | 9.7 | 16.1 | 0.00 | 0.00 | 0.00 | 65 | 1012.7 |
| 20260905210506 | 30 | 219 | 4.8 | 16.1 | 0.00 | 0.00 | 0.00 | 66 | 1012.7 |
| 20260905205516 | 30 | 215 | 8.0 | 14.5 | 0.00 | 0.00 | 0.00 | 63 | 1012.7 |
| 20260905205012 | 30 | 216 | 8.0 | 16.1 | 0.00 | 0.00 | 0.00 | 63 | 1012.6 |
| 20260905204529 | 31 | 202 | 8.0 | 16.1 | 0.00 | 0.00 | 0.00 | 61 | 1012.7 |
| 20260905204011 | 31 | 205 | 6.4 | 14.5 | 0.00 | 0.00 | 0.00 | 63 | 1012.8 |
| 20260905203515 | 30 | 192 | 6.4 | 16.1 | 0.00 | 0.00 | 0.00 | 62 | 1012.9 |
| 20260905203030 | 30 | 257 | 6.4 | 16.1 | 0.00 | 0.00 | 0.00 | 63 | 1012.9 |
| 20260905202514 | 30 | 217 | 6.4 | 12.9 | 0.00 | 0.00 | 0.00 | 63 | 1013.0 |
| 20260905202017 | 30 | 170 | 8.0 | 12.9 | 0.00 | 0.00 | 0.00 | 63 | 1013.1 |
| 20260905201534 | 30 | 160 | 3.2 | 11.3 | 0.00 | 0.00 | 0.00 | 65 | 1013.1 |
| 20260905201018 | 30 | 192 | 3.2 | 12.9 | 0.00 | 0.00 | 0.00 | 64 | 1013.2 |
| 20260905200518 | 30 | 246 | 6.4 | 12.9 | 0.00 | 0.00 | 0.00 | 64 | 1013.1 |
| 20260905200041 | 30 | 202 | 6.4 | 14.5 | 0.00 | 0.00 | 0.00 | 64 | 1013.3 |
| 20260905195517 | 30 | 238 | 6.4 | 14.5 | 0.00 | 0.00 | 0.00 | 64 | 1013.4 |
| 20260905195019 | 30 | 269 | 6.4 | 16.1 | 0.00 | 0.00 | 0.00 | 64 | 1013.3 |
| 20260905194535 | 30 | 217 | 9.7 | 16.1 | 0.00 | 0.00 | 0.00 | 64 | 1013.4 |
| 20260905194013 | 30 | 188 | 6.4 | 17.7 | 0.00 | 0.00 | 0.00 | 64 | 1013.4 |
| 20260905193511 | 30 | 202 | 9.7 | 19.3 | 0.00 | 0.00 | 0.00 | 64 | 1013.3 |
| 20260905193029 | 30 | 237 | 11.3 | 19.3 | 0.00 | 0.00 | 0.00 | 64 | 1013.4 |
| 20260905192516 | 29 | 220 | 8.0 | 16.1 | 0.00 | 0.00 | 0.00 | 65 | 1013.5 |
| 20260905192016 | 29 | 180 | 9.7 | 16.1 | 0.00 | 0.00 | 0.00 | 65 | 1013.4 |
| 20260905191534 | 29 | 173 | 9.7 | 17.7 | 0.00 | 0.00 | 0.00 | 66 | 1013.5 |
| 20260905191018 | 29 | 184 | 9.7 | 16.1 | 0.00 | 0.00 | 0.00 | 65 | 1013.6 |
| 20260905190516 | 29 | 210 | 11.3 | 16.1 | 0.00 | 0.00 | 0.00 | 66 | 1013.7 |
| 20260905190035 | 29 | 229 | 4.8 | 17.7 | 0.00 | 0.00 | 0.00 | 66 | 1013.8 |
| 20260905185521 | 29 | 244 | 6.4 | 17.7 | 0.00 | 0.00 | 0.00 | 66 | 1013.8 |
| 20260905185018 | 29 | 222 | 9.7 | 14.5 | 0.00 | 0.00 | 0.00 | 66 | 1013.8 |
| 20260905184542 | 29 | 186 | 3.2 | 12.9 | 0.00 | 0.00 | 0.00 | 66 | 1013.9 |
| 20260905184016 | 29 | 186 | 6.4 | 12.9 | 0.00 | 0.00 | 0.00 | 68 | 1014.0 |
| 20260905183521 | 28 | 248 | 6.4 | 17.7 | 0.00 | 0.00 | 0.00 | 68 | 1014.1 |
| 20260905183034 | 29 | 260 | 6.4 | 17.7 | 0.00 | 0.00 | 0.00 | 66 | 1014.1 |
| 20260905182513 | 29 | 198 | 9.7 | 14.5 | 0.00 | 0.00 | 0.00 | 67 | 1014.2 |
| 20260905182016 | 28 | 195 | 4.8 | 22.5 | 0.00 | 0.00 | 0.00 | 67 | 1014.3 |
| 20260905181534 | 29 | 229 | 8.0 | 22.5 | 0.00 | 0.00 | 0.00 | 66 | 1014.4 |
| 20260905181025 | 30 | 263 | 8.0 | 22.5 | 0.00 | 0.00 | 0.00 | 64 | 1014.5 |
| 20260905180520 | 30 | 203 | 6.4 | 19.3 | 0.00 | 0.00 | 0.00 | 64 | 1014.6 |
| 20260905180028 | 30 | 201 | 8.0 | 20.9 | 0.00 | 0.00 | 0.00 | 64 | 1014.7 |
| 20260905180016 | 30 | 200 | 8.0 | 20.9 | 0.00 | 0.00 | 0.00 | 64 | 1014.7 |
| 20260905175508 | 30 | 169 | 6.4 | 20.9 | 0.00 | 0.00 | 0.00 | 66 | 1014.8 |
| 20260905175008 | 29 | 251 | 6.4 | 19.3 | 0.00 | 0.00 | 0.00 | 69 | 1014.8 |
| 20260905174524 | 28 | 249 | 12.9 | 19.3 | 0.00 | 0.00 | 0.00 | 68 | 1014.8 |
| 20260905174008 | 28 | 225 | 8.0 | 19.3 | 0.00 | 0.00 | 0.00 | 68 | 1015.0 |
| 20260905173512 | 28 | 188 | 11.3 | 19.3 | 0.00 | 0.00 | 0.00 | 69 | 1015.2 |
| 20260905173023 | 28 | 224 | 9.7 | 25.7 | 0.00 | 0.00 | 0.00 | 69 | 1015.1 |
| 20260905172511 | 28 | 165 | 11.3 | 25.7 | 0.00 | 0.00 | 0.00 | 69 | 1015.2 |
| 20260905172014 | 28 | 215 | 12.9 | 22.5 | 0.00 | 0.00 | 0.00 | 69 | 1015.1 |
| 20260905171527 | 28 | 172 | 9.7 | 22.5 | 0.00 | 0.00 | 0.00 | 72 | 1015.2 |
| 20260905171012 | 28 | 178 | 9.7 | 17.7 | 0.00 | 0.00 | 0.00 | 68 | 1015.2 |
| 20260905170512 | 28 | 207 | 8.0 | 17.7 | 0.00 | 0.00 | 0.00 | 68 | 1015.3 |
| 20260905170012 | 28 | 221 | 9.7 | 17.7 | 0.00 | 0.00 | 0.00 | 68 | 1015.3 |
| 20260905165512 | 28 | 243 | 11.3 | 17.7 | 0.00 | 0.00 | 0.00 | 70 | 1015.4 |
| 20260905165004 | 27 | 236 | 8.0 | 19.3 | 0.00 | 0.00 | 0.00 | 70 | 1015.5 |
| 20260905164516 | 28 | 261 | 11.3 | 20.9 | 0.00 | 0.00 | 0.00 | 71 | 1015.5 |
| 20260905164013 | 27 | 181 | 11.3 | 20.9 | 0.00 | 0.00 | 0.00 | 70 | 1015.5 |
| 20260905163507 | 28 | 206 | 11.3 | 20.9 | 0.00 | 0.00 | 0.00 | 69 | 1015.5 |
| 20260905163033 | 28 | 139 | 14.5 | 20.9 | 0.00 | 0.00 | 0.00 | 68 | 1015.6 |
| 20260905162512 | 28 | 196 | 9.7 | 19.3 | 0.00 | 0.00 | 0.00 | 69 | 1015.7 |
| 20260905162013 | 28 | 215 | 9.7 | 17.7 | 0.00 | 0.00 | 0.00 | 68 | 1015.7 |
| 20260905161535 | 28 | 215 | 11.3 | 16.1 | 0.00 | 0.00 | 0.00 | 68 | 1015.8 |
| 20260905161016 | 28 | 189 | 9.7 | 20.9 | 0.00 | 0.00 | 0.00 | 68 | 1015.8 |
| 20260905160515 | 29 | 213 | 8.0 | 20.9 | 0.00 | 0.00 | 0.00 | 68 | 1015.7 |
| 20260905160029 | 29 | 223 | 11.3 | 17.7 | 0.00 | 0.00 | 0.00 | 68 | 1015.7 |
| 20260905155512 | 28 | 204 | 9.7 | 19.3 | 0.00 | 0.00 | 0.00 | 67 | 1015.6 |
| 20260905155004 | 29 | 196 | 12.9 | 19.3 | 0.00 | 0.00 | 0.00 | 67 | 1015.5 |
| 20260905154516 | 29 | 250 | 9.7 | 17.7 | 0.00 | 0.00 | 0.00 | 67 | 1015.5 |
| 20260905154007 | 29 | 255 | 9.7 | 17.7 | 0.00 | 0.00 | 0.00 | 68 | 1015.4 |
| 20260905153513 | 29 | 246 | 9.7 | 17.7 | 0.00 | 0.00 | 0.00 | 68 | 1015.3 |
| 20260905153026 | 29 | 215 | 9.7 | 17.7 | 0.00 | 0.00 | 0.00 | 67 | 1015.4 |
| 20260905152509 | 29 | 215 | 9.7 | 17.7 | 0.00 | 0.00 | 0.00 | 68 | 1015.4 |
| 20260905152013 | 29 | 242 | 8.0 | 14.5 | 0.00 | 0.00 | 0.00 | 66 | 1015.4 |
| 20260905151532 | 29 | 200 | 6.4 | 14.5 | 0.00 | 0.00 | 0.00 | 68 | 1015.3 |
| 20260905151012 | 29 | 196 | 6.4 | 12.9 | 0.00 | 0.00 | 0.00 | 68 | 1015.3 |
| 20260905150519 | 28 | 254 | 3.2 | 12.9 | 0.00 | 0.00 | 0.00 | 70 | 1015.2 |
| 20260905150008 | 28 | 205 | 4.8 | 12.9 | 0.00 | 0.00 | 0.00 | 70 | 1015.2 |
| 20260905145505 | 28 | 192 | 4.8 | 8.0 | 0.00 | 0.00 | 0.00 | 70 | 1015.2 |
| 20260905145006 | 28 | 177 | 3.2 | 9.7 | 0.00 | 0.00 | 0.00 | 70 | 1015.3 |
| 20260905144514 | 28 | 182 | 4.8 | 9.7 | 0.00 | 0.00 | 0.00 | 70 | 1015.3 |
| 20260905144005 | 28 | 196 | 6.4 | 8.0 | 0.00 | 0.00 | 0.00 | 70 | 1015.3 |
| 20260905143508 | 28 | 195 | 4.8 | 8.0 | 0.00 | 0.00 | 0.00 | 70 | 1015.3 |
| 20260905143026 | 28 | 225 | 4.8 | 6.4 | 0.00 | 0.00 | 0.00 | 69 | 1015.3 |
| 20260905142508 | 28 | 207 | 0.0 | 4.8 | 0.00 | 0.00 | 0.00 | 69 | 1015.2 |
| 20260905142002 | 28 | 252 | 0.0 | 1.6 | 0.00 | 0.00 | 0.00 | 68 | 1015.2 |
| 20260905141504 | 28 | 360 | 0.0 | 4.8 | 0.00 | 0.00 | 0.00 | 68 | 1015.1 |
| 20260905141003 | 28 | 360 | 0.0 | 6.4 | 0.00 | 0.00 | 0.00 | 68 | 1015.1 |
| 20260905140503 | 28 | 352 | 1.6 | 6.4 | 0.00 | 0.00 | 0.00 | 69 | 1015.1 |
| 20260905140007 | 28 | 28 | 3.2 | 6.4 | 0.00 | 0.00 | 0.00 | 70 | 1015.2 |
| 20260905135503 | 27 | 17 | 3.2 | 4.8 | 0.00 | 0.00 | 0.00 | 70 | 1015.0 |